MDT,Max TemperatureF,Mean TemperatureF,Min TemperatureF,Max Dew PointF,MeanDew PointF,Min DewpointF,Max Humidity, Mean Humidity, Min Humidity, Max Sea Level PressureIn, Mean Sea Level PressureIn, Min Sea Level PressureIn, Max VisibilityMiles, Mean VisibilityMiles, Min VisibilityMiles, Max Wind SpeedMPH, Mean Wind SpeedMPH, Max Gust SpeedMPH,PrecipitationIn, CloudCover, Events, WindDirDegrees
2014-3-1,-7,-12,-17,-11,-19,-23,83,73,63,30.61,30.42,30.18,10,4,1,20,9,21,0.02,8,Snow,50
2014-3-2,-2,-8,-15,-7,-15,-20,81,73,65,30.51,30.27,29.86,10,7,1,12,3,14,0.04,7,Snow,79
2014-3-3,8,1,-6,2,-3,-10,87,78,69,30.15,30.03,29.81,10,10,10,10,5,12,0.00,2,,79
2014-3-4,42,24,5,28,23,9,92,74,55,30.01,29.96,29.91,10,10,10,18,10,23,0.00,0,,215
2014-3-5,47,42,36,33,30,26,70,62,53,29.92,29.80,29.66,10,10,10,28,17,31,0.00,1,,208
2014-3-6,43,27,11,33,19,9,100,85,70,30.13,29.79,29.59,10,7,4,20,8,23,0.03,7,Rain,45
2014-3-7,51,31,11,32,21,8,100,77,53,30.26,30.14,29.92,10,9,6,17,8,23,0.00,3,,198
2014-3-8,50,41,32,27,24,20,78,55,32,30.17,30.04,29.84,10,10,10,32,19,39,0.00,0,,218
2014-3-9,61,50,38,37,32,20,70,49,28,29.86,29.77,29.71,10,10,10,38,23,47,0.00,0,,233
2014-3-10,44,38,32,38,34,31,100,81,62,30.09,29.86,29.76,10,6,1,22,7,28,0.58,7,Rain-Snow,7
2014-3-11,45,33,21,33,27,22,100,75,49,30.47,30.28,30.05,10,6,0,23,11,26,T,4,Fog-Snow,244
2014-3-12,55,42,28,25,24,22,85,58,30,30.35,30.22,30.03,10,10,10,24,16,29,0.00,0,,213
2014-3-13,51,39,30,29,24,19,82,52,36,29.98,29.93,29.87,10,10,10,23,14,,0.00,2,,223
2014-3-14,51,41,30,31,25,19,72,54,35,29.96,29.86,29.77,10,10,10,31,18,39,0.00,4,,227
2014-3-15,51,42,32,33,28,20,100,65,29,30.33,30.16,29.94,10,7,1,29,15,35,0.15,5,Snow,256
2014-3-16,60,48,36,25,19,14,39,28,17,30.12,29.90,29.63,10,10,10,41,22,51,0.00,0,,227
2014-3-17,46,38,30,33,30,18,100,69,37,30.03,29.63,29.37,10,5,0,29,14,35,0.14,7,Fog-Rain-Snow,315
2014-3-18,44,34,24,27,21,14,92,63,33,30.15,30.10,30.05,10,10,10,22,12,30,T,4,,233
2014-3-19,47,37,27,24,18,14,69,50,30,30.10,29.99,29.86,10,10,10,30,18,38,0.00,0,,225
2014-3-20,43,32,21,27,22,8,85,55,25,30.28,30.01,29.78,10,8,2,38,19,45,T,6,Snow,292
2014-3-21,21,16,11,18,12,9,92,80,67,30.59,30.38,30.17,10,5,1,22,9,28,0.07,8,Snow,2
2014-3-22,26,17,8,15,10,5,92,76,60,30.63,30.51,30.31,10,10,8,16,7,20,0.00,5,,70
2014-3-23,30,24,17,19,16,14,92,78,63,30.50,30.27,30.09,10,6,1,14,6,15,0.05,8,Snow,341
2014-3-24,25,20,15,18,12,6,88,72,56,30.61,30.49,30.30,10,6,2,13,6,16,0.01,7,Snow,18
2014-3-25,40,29,17,24,19,11,92,70,48,30.40,29.96,29.67,10,10,10,14,5,15,0.00,0,,79
2014-3-26,42,32,21,28,26,21,96,78,59,29.73,29.63,29.52,10,10,9,15,8,18,0.00,4,,38
2014-3-27,29,25,20,27,25,19,96,91,85,30.03,29.75,29.63,10,4,0,14,9,15,0.20,8,Fog-Snow,22
2014-3-28,50,35,20,33,23,19,100,68,36,30.09,29.97,29.83,10,6,0,24,7,32,0.01,6,Fog,240
2014-3-29,51,43,35,36,29,23,76,56,36,29.79,29.74,29.68,10,10,10,29,16,36,0.00,2,,221
2014-3-30,39,33,27,29,27,24,92,76,59,30.12,29.91,29.74,10,8,2,16,9,20,T,6,Snow,8
2014-3-31,45,35,25,30,27,24,100,75,49,30.15,30.04,29.96,10,5,0,14,7,17,0.01,7,Fog-Snow,69